Skip Page Navigation
NASA JPL Caltech
NASA Logo - Jet Propulsion Laboratory + View the NASA Portal
+ Near-Earth Object (NEO) Program
Search JPL
JPL Home Earth Solar System Stars & Galaxies Technology
JPL Solar System Dynamics
BODIES ORBITS EPHEMERIDES TOOLS PHYSICAL DATA DISCOVERY FAQ SITE MAP
JPL Small-Body Database Browser
Search: [ help ]  
162922 (2001 OY13)
Classification: Apollo [NEO, PHA]          SPK-ID: 2162922
Ephemeris | Orbit Diagram | Orbital Elements | Physical Parameters | Discovery Circumstances | Close-Approach Data ]

[ hide orbit diagram ]
Orbit Diagram
Note: Make sure you have Java enabled on your browser to see the applet. This applet is provided as a 3D orbit visualization tool. The applet was implemented using 2-body methods, and hence should not be used for determining accurate long-term trajectories (over several years or decades) or planetary encounter circumstances. For accurate long-term ephemerides, please instead use our Horizons system.
Orbit Viewer

Additional Notes: the orbits shown in the applet are color coded. The planets are white lines, and the asteroid/comet is a blue line. The bright white line indicates the portion of the orbit that is above the ecliptic plane, and the darker portion is below the ecliptic plane. Likewise for the asteroid/comet orbit, the light blue indicates the portion above the ecliptic plane, and the dark blue the portion below the ecliptic plane.

Orbit Viewer applet originally written and kindly provided by Osamu Ajiki (AstroArts), and further modified by Ron Baalke (JPL).


Orbital Elements at Epoch 2456400.5 (2013-Apr-18.0) TDB
Reference: JPL 37 (heliocentric ecliptic J2000)
 Element Value Uncertainty (1-sigma)   Units 
e .3817049162413102 2.0346e-07  
a 1.31817379367185 9.6218e-09 AU
q .8150203761668466 2.6623e-07 AU
i 10.29986217402948 1.8063e-05 deg
node 284.2651509038444 2.5976e-05 deg
peri 291.1975575526973 4.8274e-05 deg
M 319.3347100437967 1.9786e-05 deg
tp 2456462.942288185377
(2013-Jun-19.44228819)
3.1033e-05 JED
period 552.7865108289112
1.51
6.0525e-06
1.657e-08
d
yr
n .6512459927073381 7.1305e-09 deg/d
Q 1.821327211176854 1.3295e-08 AU
  Orbit Determination Parameters
   # obs. used (total)      164  
   data-arc span      2215 days (6.06 yr)  
   first obs. used      2001-07-19  
   last obs. used      2007-08-12  
   planetary ephem.      DE405  
   SB-pert. ephem.      SB405-CPV-2  
   condition code      0  
   fit RMS      .56868  
   data source      ORB  
   producer      Otto Matic  
   solution date      2013-Apr-29 15:39:51  

Additional Information
 Earth MOID = .0131443 AU 
 T_jup = 4.863 
[ show covariance matrix ]

Ephemeris | Orbit Diagram | Orbital Elements | Physical Parameters | Discovery Circumstances | Close-Approach Data ]

Physical Parameter Table
Parameter Symbol Value Units Sigma Reference Notes
absolute magnitude H 20.714 mag .57933 37 autocmod 2.5c

162922 (2001 OY13)          Discovered 2001-Jul-19 by LONEOS at Anderson Mesa (699)
Reference: 20070926/Numbers.arcLast Updated: 2007-09-30

[ show close-approach data ]
Ephemeris | Orbit Diagram | Orbital Elements | Physical Parameters | Discovery Circumstances | Close-Approach Data ]
ABOUT SSD CREDITS/AWARDS PRIVACY/COPYRIGHT GLOSSARY LINKS
FirstGov 2013-May-20 06:52 UT
(server date/time)  
NASA Home Page
Site Manager:   Donald K. Yeomans
Webmaster  Alan B. Chamberlin